www.pogodaiklimat.ru

Погода и климат >> Архив погоды >> Россия >> Ростовская область >> Ростов-на-Дону


АРХИВ ПОГОДЫ в Ростове-на-Дону

Время (UTC), дата Ветер
(напр.,м/с)
 
Видим.   Явления Облачность Т
(С)
Тd
(С)
f
(%)
Тe
(С)
Тes
(С)
Комфортность P
(гПа)
Po
(гПа)
Тmin
(С)
Tmax
(С)
R
(мм)
R24
(мм)
S
(см)
03 20.05 н/о ясно +16.7 +3.6 42 1016.1 1006.2 +16.5
06 20.05 н/о ясно +22.6 +5.2 32 1017.2 1007.5
09 20.05 н/о ясно +25.7 +5.2 27 1017.5 1007.9
12 20.05 н/о 3/0
[Ci fib]
+25.8 +5.1 26 1017.7 1008.1
15 20.05 н/о 3/0
[Ci fib]
+24.5 +6.2 31 1017.4 1007.8 +26.9
18 20.05 н/о ясно +19.8 +5.9 40 1018.6 1008.8
21 20.05 н/о ясно +16.9 +4.8 45 1019.1 1009.2
00 21.05 н/о ясно +13.5 +4.5 54 1019.5 1009.5
03 21.05 н/о ясно +13.7 +2.1 45 1020.3 1010.3 +12.7
06 21.05 н/о 3/0
[Ci fib]
+19.6 +4.7 37 1020.1 1010.3
09 21.05 н/о 4/0
[Ci fib]
+24.5 +3.6 26 1019.5 1009.9
12 21.05 н/о 8/0
[Ci fib]
+25.5 +4.3 25 1018.5 1008.9
15 21.05 н/о 9/0
[Ci fib]
+24.0 +4.5 28 1017.5 1007.9 +26.0
18 21.05 н/о 9/5 600 м
[Sc Ac trans]
+20.7 +4.1 34 1017.0 1007.3
21 21.05 н/о 9/0
[Ac trans Ci fib]
+18.0 +6.7 48 1016.7 1006.9
00 22.05 н/о 8/0
[Ac trans Ci fib]
+15.6 +6.0 53 1015.4 1005.5
03 22.05 н/о 9/4 600 м
[Cb calv Ac trans]
+15.4 +8.6 64 1015.1 1005.2 +15.0
06 22.05 н/о 8/8 600 м
[Cb calv]
+19.7 +7.3 45 1014.1 1004.4
09 22.05 н/о 10/10 600 м
[Cb calv]
+19.4 +4.2 37 1013.5 1003.8
12 22.05 н/о слаб. ливневой дождь 10/10 600 м
[Cb calv]
+17.4 +13.4 77 1012.7 1002.9
15 22.05 н/о в посл. час ливневой дождь 10/10 600 м
[Cb calv]
+16.2 +14.7 91 1012.4 1002.6 +20.7 2
18 22.05 н/о {ливн. осадки} 10/10 600 м
[Cb calv]
+15.8 +14.6 93 1012.3 1002.5
21 22.05 н/о 10/10 600 м
[Cb calv]
+14.9 +13.5 91 1011.6 1001.8
00 23.05 н/о 10/8
[Cb calv Ac trans]
+15.3 +13.3 88 1011.1 1001.3
03 23.05 н/о 10/0
[Ac und]
+15.6 +14.3 92 1010.8 1001.0 +14.4
06 23.05 н/о {гроза} 10/8 600 м
[Cb calv Ac und]
+18.7 +14.3 76 1010.4 1000.7
09 23.05 н/о в посл. час ливневой дождь 9/5 600 м
[Cb calv Ac trans]
+19.7 +11.6 60 1010.3 1000.6
12 23.05 н/о {ливн. осадки} 8/6 600 м
[Cb calv Ac trans]
+19.8 +9.9 53 1009.6 999.9
15 23.05 н/о 8/0
[Ac trans]
+19.0 +11.8 63 1009.0 999.3 +21.1 0.8
18 23.05 н/о 8/6 600 м
[Cb calv Ac trans]
+17.4 +12.5 73 1009.8 1000.1
21 23.05 н/о 5/0
[Ac trans]
+16.0 +13.9 87 1010.0 1000.2
00 24.05 н/о 3/0
[Ac trans]
+15.2 +13.9 92 1009.3 999.5
03 24.05 н/о 6/3 600 м
[Cb calv Ac trans]
+16.0 +15.0 94 1009.8 1000.0 +14.7
06 24.05 н/о 4/4 600 м
[Cb calv]
+20.8 +15.3 71 1009.7 1000.1
09 24.05 н/о 8/5 600 м
[Cb calv Ac trans]
+22.8 +14.1 58 1009.8 1000.2
12 24.05 н/о 5/3 600 м
[Cb calv Ac trans]
+25.6 +12.4 44 1009.4 999.9
15 24.05 н/о 8/0
[Ac trans Ci fib]
+24.2 +10.6 42 1009.0 999.5 +26.4
18 24.05 н/о 4/0
[Ac trans]
+19.2 +13.5 70 1009.6 999.9
21 24.05 н/о ясно +15.8 +13.5 86 1009.9 1000.1
00 25.05 н/о ясно +15.9 +13.5 86 1009.2 999.4
03 25.05 н/о 8/4 600 м
[Cb calv Ac trans]
+17.4 +14.2 81 1008.7 999.0 +15.4
06 25.05 н/о {ливн. осадки} 8/5 600 м
[Cb calv Ac trans]
+20.7 +14.6 68 1008.1 998.5
09 25.05 н/о 8/3 600 м
[Cb calv Ac trans]
+25.0 +14.7 53 1006.5 997.0
12 25.05 н/о гроза, ливневой дождь 10/10 600 м
[Cb cap]
+17.9 +16.7 93 1007.3 997.6
15 25.05 н/о {ливн. осадки} 6/6 600 м
[Cb calv]
+18.1 +17.1 94 1006.2 996.5 +25.6 10
18 25.05 н/о в посл. час ливневой дождь 8/5 600 м
[Cb calv Ac trans]
+16.5 +15.7 95 1006.5 996.8
21 25.05 н/о 10/6 600 м
[Cb calv Ac und]
+15.6 +14.9 96 1007.0 997.2
00 26.05 н/о {ливн. осадки} 10/8 600 м
[Cb calv Ac und]
+15.8 +15.3 97 1006.7 996.9
03 26.05 н/о слаб. ливневой дождь 10/8 600 м
[Cb calv Ac und]
+14.7 +13.7 94 1007.5 997.7 +14.6 13
06 26.05 н/о в посл. час ливневой дождь 10/9 600 м
[Cb calv Ac trans]
+16.5 +16.0 97 1008.2 998.5 +14.5
09 26.05 н/о слаб. ливневой дождь 10/8 600 м
[Cb calv Ac trans]
+16.9 +15.9 94 1009.3 999.6
12 26.05 н/о ливневой дождь 10/8 600 м
[Cb calv Ac trans]
+17.4 +15.8 90 1009.3 999.6
15 26.05 н/о слаб. ливневой дождь 10/8 600 м
[Cb calv Ac trans]
+15.6 +14.5 93 1010.1 1000.3 +19.9 30
18 26.05 н/о {ливн. осадки} 9/8 600 м
[Cb calv Ac trans]
+17.5 +16.7 95 1011.1 1001.4
21 26.05 н/о 10/8 600 м
[Cb calv Ac trans]
+17.4 +16.4 94 1011.6 1001.9
00 27.05 н/о гроза без осадков 10/8 600 м
[Cb calv Ac trans]
+17.0 +16.4 96 1012.7 1002.9

 

Местоположение метеостанции Ростов-на-Дону (Ростовская область, Россия): широта 47.27 долгота 39.82 высота над уровнем моря 75 м.

В архиве по умолчанию представлена погода в Ростове-на-Дону за последнюю неделю. Архивные данные за месяц целиком и за предыдущие месяцы, начиная с января 2011 года, Вы можете получить, выбрав интересующий диапазон дат из раскрывающегося списка и нажав кнопку "Ввод!".


*Определитесь, кто Вы:
робот инопланетянин человек

Внимание! Время в таблицах - всемирное. Для получения местного времени необходимо прибавить поправку, которая равна 3 ч.

Смотрите также архив погоды в соседних городах и на ближайших метеорологических станциях:

Погода в Аэропорту Платов (Ростовская область, Россия) (26 км)
Погода в Шахтах (Ростовская область, Россия) (59 км)
Погода в Зерноград (Ростовская область, Россия) (60 км)
Погода в Таганроге (Ростовская область, Россия) (70 км)
Погода в Матвеевом Кургане (Ростовская область, Россия) (78 км)
Погода в Семикаракорске (Ростовская область, Россия) (81 км)
Погода в Маргаритово (Ростовская область, Россия) (81 км)
Погода в Кущевской (Краснодарский край, Россия) (84 км)
Погода в Константиновске (Ростовская область, Россия) (102 км)
Погода в Староминская (Краснодарский край, Россия) (102 км)

Пояснения к столбцам:

Ветер - указаны скорость ветра в м/с - средняя за 10 мин, порывы в срок и между сроками (в фигурных скобках) и направление, откуда дует ветер: С - северный, СВ - северо-восточный, В - восточный, ЮВ - юго-восточный, Ю - южный, ЮЗ - юго-западный, З - западный, СЗ - северо-западный.
Видимость - горизонтальная дальность видимости в метрах или километрах. При видимости от 1 до 10 км при отсутствии осадков обычно наблюдается дымка, при ухудшении видимости до 1 км и менее - туман. В сухую погоду видимость может ухудшаться дымом, пылью или мглою.
Явления - указаны атмосферные явления, наблюдавшиеся в срок или в последний час перед сроком; фигурными скобками обозначены явления, наблюдавшиеся между сроками (за 1-3 часа до срока); квадратными скобками обозначены град или гололедные отложения с указанием их диаметра в мм.
Облачность - указаны через наклонную черту общая и нижняя облачность в баллах и высота нижней границы облаков в метрах; квадратными скобками обозначены формы облаков: Ci - перистые, Cs - перисто-слоистые, Cc - перисто-кучевые, Ac - высококучевые, As - высокослоистые, Sc - слоисто-кучевые, Ns - слоисто-дождевые, Cu - кучевые, Cb - кучево-дождевые. Подробнее классификацию облаков см. в Атласе облаков (PDF).
T - Температура воздуха - температура, измеренная на высоте 2 м над землей.
Td - Температура точки росы - температура, при понижении до которой содержащийся в воздухе водяной пар достигнет насыщения.
f - Относительная влажность воздуха - влажноcть воздуха, измеренная на высоте 2 м над землей.
Te - Эффективная температура - температура, которую ощущает одетый по сезону человек в тени. Характеристика душности погоды. При расчете учитывается влияние влажности воздуха и скорости ветра на теплоощущения человека.
Tes - Эффективная температура на солнце - температура, которую ощущает человек, с поправкой на солнечный нагрев. Характеристика знойности погоды. Зависит от высоты солнца над горизонтом, облачности и скорости ветра. Ночью, в пасмурную погоду, а также при ветре 12 м/с и более поправка равна нулю.
P - Атмосферное давление - приведенное к уровню моря атмосферное давление.
Po - Атмосферное давление - измеренное на уровне метеостанции атмосферное давление.
Tmin - Минимальная температура - минимум температуры воздуха на высоте 2 м над землей.
Tmax - Максимальная температура - максимум температуры воздуха на высоте 2 м над землей.
R - Количество осадков - Количество выпавших осадков за период времени, мм. При наведении курсора мыши на число - период времени, за который выпало указанное количество осадков.
R24 - Количество осадков - Количество выпавших осадков за 24 часа, мм.
S - Снежный покров - Высота снежного покрова, см. При наведении курсора мыши на число - состояние снежного покрова и степень покрытия местности в баллах.